Perry, IA

7:05 AM CST on February 24, 2017 (GMT -0600)
Perry Municipal

Weather History for KPRO - January, 2013

Change the Weather History Date:

Thursday, January 3, 2013

  Actual Average Record
Temperature  
Mean Temperature 18 °F -  
Max Temperature 30 °F 28 °F 46 °F (1990)
Min Temperature 6 °F 10 °F -12 °F (1968)
Degree Days  
Heating Degree Days 47    
Moisture  
Dew Point 13 °F    
Average Humidity 84    
Maximum Humidity 92    
Minimum Humidity 74    
Precipitation  
Precipitation 0.00 in - - ()
Sea Level Pressure  
Sea Level Pressure 30.30 in    
Wind  
Wind Speed 12 mph (WNW)    
Max Wind Speed 21 mph    
Max Gust Speed 21 mph    
Visibility 10 miles    
Events      
Averages and records for this station are not official NWS values.
T = Trace of Precipitation, MM = Missing Value Source: NWS Daily Summary

Daily Weather History Graph

Daily Weather History Graph

Search for Another Location

Airport or City:

Trip Planner

Search our weather history database for the weather conditions in past years. The results will help you decide how hot, cold, wet, or windy it might be!

Date:

Astronomy

Jan. 03, 2013 Rise Set
Actual Time 7:44 AM CST 4:58 PM CST
Civil Twilight 7:12 AM CST 5:29 PM CST
Nautical Twilight 6:38 AM CST 6:04 PM CST
Astronomical Twilight 6:04 AM CST 6:38 PM CST
Moon 11:41 PM CST (1/3) 10:50 AM CST (1/3)
Length of Visible Light 10h 17m
Length of Day
9h 14m
Waning Gibbous, 65% of the Moon is Illuminated
Jan 3
Waning Gibbous
Jan 4
Last Quarter
Jan 11
New
Jan 18
First Quarter
Jan 26
Full

Hourly Weather History & Observations

Time (CST) Temp. Windchill Dew Point Humidity Pressure Visibility Wind Dir Wind Speed Gust Speed Precip Events Conditions
12:15 AM 29.3 °F 20.2 °F 26.6 °F 90% 30.16 in 10.0 mi West 10.4 mph - N/A   Overcast
12:35 AM 29.3 °F 19.6 °F 26.6 °F 90% 30.16 in 10.0 mi WNW 11.5 mph - N/A   Overcast
12:55 AM 29.8 °F 18.9 °F 26.8 °F 88% 30.16 in 10.0 mi WNW 15.0 mph 20.7 mph N/A   Overcast
1:15 AM 30.2 °F 20.2 °F 26.6 °F 86% 30.16 in 10.0 mi WNW 12.7 mph - N/A   Overcast
2:15 AM 29.8 °F 19.3 °F 26.6 °F 88% 30.17 in 10.0 mi WNW 13.8 mph - N/A   Overcast
2:35 AM 29.7 °F 19.6 °F 26.6 °F 88% 30.17 in 10.0 mi WNW 12.7 mph 18.4 mph N/A   Overcast
2:55 AM 29.7 °F 20.1 °F 26.6 °F 88% 30.18 in 10.0 mi WNW 11.5 mph - N/A   Overcast
3:15 AM 29.3 °F 19.6 °F 26.4 °F 89% 30.18 in 10.0 mi WNW 11.5 mph - N/A   Overcast
3:35 AM 29.3 °F 18.6 °F 26.2 °F 88% 30.18 in 10.0 mi WNW 13.8 mph - N/A   Overcast
3:55 AM 29.5 °F 18.8 °F 26.2 °F 88% 30.18 in 10.0 mi WNW 13.8 mph - N/A   Overcast
4:15 AM 29.5 °F 19.3 °F 26.4 °F 88% 30.18 in 10.0 mi WNW 12.7 mph - N/A   Overcast
4:35 AM 29.3 °F 18.6 °F 26.4 °F 89% 30.19 in 10.0 mi WNW 13.8 mph - N/A   Overcast
4:55 AM 29.3 °F 19.1 °F 26.6 °F 90% 30.20 in 10.0 mi WNW 12.7 mph - N/A   Overcast
5:15 AM 28.2 °F 17.2 °F 24.8 °F 87% 30.21 in 10.0 mi NNW 13.8 mph 18.4 mph N/A   Overcast
5:35 AM 26.6 °F 13.8 °F 23.4 °F 88% 30.22 in 10.0 mi North 17.3 mph - N/A   Overcast
5:55 AM 22.8 °F 9.9 °F 19.6 °F 87% 30.23 in 10.0 mi North 15.0 mph - N/A   Overcast
6:15 AM 21.9 °F 8.7 °F 18.9 °F 88% 30.25 in 10.0 mi North 15.0 mph - N/A   Overcast
6:35 AM 22.1 °F 11.3 °F 19.2 °F 89% 30.26 in 10.0 mi NNW 10.4 mph - N/A   Overcast
6:55 AM 22.5 °F 11.1 °F 19.4 °F 88% 30.27 in 10.0 mi NNW 11.5 mph - N/A   Overcast
7:15 AM 22.1 °F 10.0 °F 19.0 °F 88% 30.28 in 10.0 mi North 12.7 mph - N/A   Overcast
7:35 AM 21.7 °F 9.6 °F 17.6 °F 84% 30.28 in 10.0 mi NNW 12.7 mph - N/A   Overcast
7:55 AM 18.1 °F 1.6 °F 12.6 °F 79% 30.30 in 10.0 mi NNW 20.7 mph - N/A   Overcast
8:15 AM 15.4 °F 0.4 °F 10.4 °F 80% 30.31 in 10.0 mi NNW 15.0 mph - N/A   Scattered Clouds
8:35 AM 14.9 °F -1.8 °F 9.5 °F 79% 30.32 in 10.0 mi NW 18.4 mph - N/A   Clear
8:55 AM 14.2 °F -1.2 °F 8.2 °F 77% 30.33 in 10.0 mi NW 15.0 mph - N/A   Clear
9:35 AM 13.8 °F 1.8 °F 8.2 °F 78% 30.34 in 10.0 mi WNW 9.2 mph - N/A   Clear
9:55 AM 13.6 °F 0.0 °F 7.7 °F 77% 30.35 in 10.0 mi NW 11.5 mph - N/A   Clear
10:15 AM 13.6 °F 0.7 °F 7.7 °F 77% 30.36 in 10.0 mi WNW 10.4 mph - N/A   Clear
10:35 AM 13.8 °F -0.5 °F 6.8 °F 74% 30.36 in 10.0 mi NW 12.7 mph - N/A   Clear
10:55 AM 14.0 °F 1.2 °F 7.0 °F 74% 30.36 in 10.0 mi NW 10.4 mph - N/A   Clear
11:15 AM 14.0 °F 0.5 °F 7.5 °F 75% 30.37 in 10.0 mi WNW 11.5 mph - N/A   Clear
11:35 AM 13.8 °F -0.5 °F 7.7 °F 77% 30.36 in 10.0 mi WNW 12.7 mph - N/A   Clear
11:55 AM 14.0 °F -1.4 °F 7.7 °F 76% 30.36 in 10.0 mi WNW 15.0 mph - N/A   Clear
12:15 PM 14.7 °F 2.1 °F 8.2 °F 75% 30.35 in 10.0 mi WNW 10.4 mph - N/A   Clear
12:35 PM 14.9 °F 0.9 °F 8.4 °F 76% 30.34 in 10.0 mi WNW 12.7 mph - N/A   Clear
12:55 PM 15.3 °F 0.2 °F 8.8 °F 76% 30.34 in 10.0 mi WNW 15.0 mph - N/A   Clear
1:15 PM 15.4 °F 2.3 °F 8.8 °F 75% 30.33 in 10.0 mi WNW 11.5 mph - N/A   Clear
1:35 PM 15.8 °F 3.4 °F 9.3 °F 76% 30.33 in 10.0 mi WNW 10.4 mph - N/A   Clear
1:55 PM 16.3 °F 4.9 °F 9.3 °F 74% 30.33 in 10.0 mi WNW 9.2 mph - N/A   Clear
2:15 PM 16.7 °F 4.5 °F 9.9 °F 74% 30.33 in 10.0 mi WNW 10.4 mph - N/A   Clear
2:35 PM 16.9 °F 5.5 °F 10.0 °F 75% 30.34 in 10.0 mi WNW 9.2 mph - N/A   Clear
2:55 PM 16.7 °F 3.8 °F 9.9 °F 74% 30.34 in 10.0 mi WNW 11.5 mph - N/A   Clear
3:15 PM 16.3 °F 2.7 °F 10.2 °F 77% 30.35 in 10.0 mi WNW 12.7 mph - N/A   Clear
3:35 PM 15.8 °F 2.1 °F 9.5 °F 76% 30.35 in 10.0 mi WNW 12.7 mph - N/A   Clear
3:55 PM 15.6 °F 3.2 °F 9.5 °F 77% 30.36 in 10.0 mi WNW 10.4 mph - N/A   Clear
4:15 PM 15.1 °F 4.2 °F 9.5 °F 79% 30.36 in 10.0 mi WNW 8.1 mph - N/A   Clear
4:35 PM 14.2 °F 2.2 °F 9.0 °F 80% 30.36 in 10.0 mi WNW 9.2 mph - N/A   Clear
4:55 PM 12.2 °F -0.2 °F 7.7 °F 82% 30.36 in 10.0 mi WNW 9.2 mph - N/A   Clear
5:15 PM 10.2 °F -1.7 °F 6.6 °F 85% 30.36 in 10.0 mi West 8.1 mph - N/A   Clear
5:35 PM 8.8 °F -4.4 °F 5.5 °F 87% 30.37 in 10.0 mi West 9.2 mph - N/A   Clear
5:55 PM 10.0 °F -0.9 °F 7.3 °F 89% 30.36 in 10.0 mi West 6.9 mph - N/A   Mostly Cloudy
6:15 PM 11.3 °F 1.9 °F 8.1 °F 87% 30.36 in 10.0 mi West 5.8 mph - N/A   Overcast
6:35 PM 11.3 °F 1.9 °F 8.6 °F 89% 30.36 in 10.0 mi West 5.8 mph - N/A   Overcast
6:55 PM 11.5 °F 2.1 °F 8.8 °F 89% 30.36 in 10.0 mi West 5.8 mph - N/A   Mostly Cloudy
7:15 PM 9.0 °F -3.2 °F 6.3 °F 89% 30.36 in 10.0 mi West 8.1 mph - N/A   Scattered Clouds
7:35 PM 8.6 °F -1.3 °F 6.4 °F 91% 30.35 in 10.0 mi WSW 5.8 mph - N/A   Clear
7:55 PM 6.8 °F -4.8 °F 4.5 °F 90% 30.34 in 10.0 mi WSW 6.9 mph - N/A   Scattered Clouds
8:15 PM 10.9 °F -1.8 °F 8.4 °F 90% 30.33 in 10.0 mi SSW 9.2 mph - N/A   Overcast
8:35 PM 8.6 °F -4.7 °F 6.3 °F 90% 30.33 in 10.0 mi SSW 9.2 mph - N/A   Mostly Cloudy
8:55 PM 8.1 °F -5.3 °F 5.9 °F 91% 30.32 in 10.0 mi SW 9.2 mph - N/A   Scattered Clouds
9:15 PM 7.2 °F -4.3 °F 4.8 °F 90% 30.32 in 10.0 mi SW 6.9 mph - N/A   Clear
9:35 PM 6.8 °F -5.9 °F 4.6 °F 91% 30.32 in 10.0 mi SW 8.1 mph - N/A   Clear
9:55 PM 8.1 °F -5.3 °F 6.1 °F 92% 30.31 in 10.0 mi SW 9.2 mph - N/A   Clear
10:15 PM 6.4 °F -8.2 °F 4.1 °F 90% 30.31 in 10.0 mi SW 10.4 mph - N/A   Clear
10:35 PM 7.7 °F -6.6 °F 5.7 °F 92% 30.30 in 10.0 mi SW 10.4 mph - N/A   Clear
10:55 PM 9.5 °F -4.4 °F 7.7 °F 92% 30.30 in 10.0 mi SW 10.4 mph - N/A   Clear
11:15 PM 9.5 °F -3.5 °F 7.2 °F 90% 30.29 in 10.0 mi SW 9.2 mph - N/A   Clear
11:35 PM 10.2 °F -2.7 °F 7.7 °F 90% 30.29 in 10.0 mi SW 9.2 mph - N/A   Clear
11:55 PM 9.3 °F -4.6 °F 7.0 °F 90% 30.28 in 10.0 mi SW 10.4 mph - N/A   Clear